User: anonymous   Login
Location: Quebec
(46.8000°N, 71.2500°W)
Time: 18:29:19
(UTC-04:00)
Language:

CZ-4B R/B - Orbit

View from above orbital plane
View from above orbital plane
View from above satellite
View from above satellite

Ground track
Ground track

The orbit data is extracted from the following two-line orbital elements,

1 29093U 06015B   17231.23430834 +.00004416 +00000-0 +10450-3 0  9994
2 29093 097.5004 343.6822 0065113 091.1451 269.7255 15.40130072627133
Epoch (UTC): 19 August 2017 05:37:24
Eccentricity: 0.0065113
inclination: 97.5004°
perigee height: 401 km
apogee height: 490 km
right ascension of ascending node: 343.6822°
argument of perigee: 91.1451°
revolutions per day: 15.40130072
mean anomaly at epoch: 269.7255°
orbit number at epoch: 62713

The dashed part of the orbit path shows where the satellite is in the earth's shadow,  

DLR